Campo, CA

12:39 PM PDT on July 26, 2017 (GMT -0700)
Campo

Weather History for KCZZ - November, 2010

Change the Weather History Date:

Sunday, November 7, 2010

  Actual Average Record
Temperature  
Mean Temperature 51 °F 55 °F  
Max Temperature 66 °F 73 °F 92 °F (1950)
Min Temperature 36 °F 38 °F 25 °F (1994)
Degree Days  
Heating Degree Days 14 10  
Month to date heating degree days 35 63  
Since 1 July heating degree days 367 273  
Cooling Degree Days 0 0  
Month to date cooling degree days 0 0  
Year to date cooling degree days 655 839  
Growing Degree Days 2 (Base 50)    
Moisture  
Dew Point 43 °F    
Average Humidity 70    
Maximum Humidity 100    
Minimum Humidity 40    
Precipitation  
Precipitation 0.00 in 0.02 in 0.47 in (1969)
Month to date precipitation 0.00 0.19  
Year to date precipitation 15.72 12.52  
Since 1 July precipitation 3.13  
Sea Level Pressure  
Sea Level Pressure 30.04 in    
Wind  
Wind Speed 5 mph (SW)    
Max Wind Speed 16 mph    
Max Gust Speed 21 mph    
T = Trace of Precipitation, MM = Missing Value Source: NWS Daily Summary

Daily Weather History Graph

Daily Weather History Graph

Search for Another Location

Airport or City:

Trip Planner

Search our weather history database for the weather conditions in past years. The results will help you decide how hot, cold, wet, or windy it might be!

Date:

Astronomy

Nov. 07, 2010 Rise Set
Actual Time 6:08 AM PST 4:50 PM PST
Civil Twilight 5:42 AM PST 5:15 PM PST
Nautical Twilight 5:13 AM PST 5:45 PM PST
Astronomical Twilight 4:44 AM PST 6:14 PM PST
Moon 7:50 AM PST (11/7) 6:02 PM PST (11/7)
Length of Visible Light 11h 32m
Length of Day
10h 41m
Waxing Crescent, 3% of the Moon is Illuminated
Nov 7
Waxing Crescent
Nov 13
First Quarter
Nov 21
Full
Nov 28
Last Quarter
Dec 5
New

Hourly Weather History & Observations

Time (PST) Temp. Windchill Dew Point Humidity Pressure Visibility Wind Dir Wind Speed Gust Speed Precip Events Conditions
12:52 AM 44.1 °F 41.5 °F 43.0 °F 96% 30.05 in - NNE 4.6 mph - N/A   Unknown
1:52 AM 42.1 °F - 41.0 °F 96% 30.06 in - Calm Calm - N/A   Unknown
1:52 AM 37.9 °F - 37.0 °F 97% 30.07 in - Calm Calm - N/A   Unknown
2:52 AM 37.9 °F 34.4 °F 37.0 °F 97% 30.06 in - ENE 4.6 mph - N/A   Unknown
3:52 AM 41.0 °F 38.0 °F 39.9 °F 96% 30.05 in - ENE 4.6 mph - N/A   Unknown
4:52 AM 39.9 °F - 39.9 °F 100% 30.06 in - Calm Calm - N/A   Unknown
5:52 AM 37.0 °F - 37.0 °F 100% 30.09 in - Calm Calm - N/A   Unknown
6:52 AM 37.9 °F 34.4 °F 37.0 °F 97% 30.09 in - NE 4.6 mph - N/A   Unknown
7:52 AM 48.9 °F - 43.0 °F 80% 30.10 in - ENE 3.5 mph - N/A   Unknown
8:52 AM 55.9 °F - 42.1 °F 60% 30.09 in - WSW 5.8 mph - N/A   Unknown
9:52 AM 61.0 °F - 42.1 °F 50% 30.08 in - Variable 4.6 mph - N/A   Unknown
10:52 AM 64.0 °F - 39.9 °F 41% 30.05 in - WSW 8.1 mph - N/A   Unknown
11:52 AM 66.0 °F - 42.1 °F 42% 30.03 in - SW 11.5 mph - N/A   Unknown
12:52 PM 64.9 °F - 41.0 °F 42% 30.01 in - WSW 11.5 mph - N/A   Unknown
1:52 PM 64.9 °F - 39.0 °F 39% 30.00 in - SSW 10.4 mph - N/A   Unknown
2:52 PM 64.9 °F - 45.0 °F 48% 30.00 in - WSW 12.7 mph - N/A   Unknown
3:52 PM 62.1 °F - 48.0 °F 60% 30.00 in - SW 12.7 mph - N/A   Unknown
4:52 PM 55.9 °F - 48.9 °F 77% 30.03 in - SW 6.9 mph - N/A   Unknown
5:52 PM 53.1 °F - 48.9 °F 86% 30.04 in - SW 4.6 mph - N/A   Unknown
6:52 PM 50.0 °F - 48.9 °F 96% 30.04 in - SW 3.5 mph - N/A   Unknown
7:52 PM 51.1 °F - 50.0 °F 96% 30.02 in - Calm Calm - N/A   Unknown
8:52 PM 51.1 °F - 48.0 °F 89% 30.02 in - NW 4.6 mph - N/A   Unknown
9:52 PM 51.1 °F - 48.0 °F 89% 30.00 in - Calm Calm - N/A   Unknown
10:52 PM 51.1 °F - 46.9 °F 86% 29.98 in - SW 3.5 mph - N/A   Unknown